Weather in Bangalore

India     12˚58′44″N   77˚35′28″E
temp.,
°C
wind,
m/s
gust,
m/s
humid.,
%
clouds,
%
prec.,
mm/h
press.,
hPa
HPBL,
m
29 november, sun
sun2923:30+20˚e48918 1.4 1016337
02:30+19˚e479320 0.0 1014312
05:30+19˚ene479447 0.0 1014346
08:30+21˚e588065 0.0 1016599
11:30+25˚e576769 0.0 10151098
14:30+26˚ene566278 0.3 10111232
17:30+24˚e587383 0.6 1012486
20:30+21˚e498775 0.1 1016490
30 november, mon
mon3023:30+20˚e488939 0.1 1015392
02:30+19˚ene489310 0.0 1013357
05:30+19˚e468742 0.0 1014489
08:30+20˚ene578198 0.0 1016603
11:30+25˚ene565960 0.0 1015920
14:30+26˚ene56510 0.0 10121352
17:30+23˚ene476911 0.0 1013581
20:30+21˚ne488191 0.0 1016362
1 december, tue
tue123:30+19˚ene488395 0.0 1016348
02:30+18˚ne3787100 0.0 1014279
05:30+17˚ne4980100 0.0 1014297
08:30+20˚ne5962100 0.0 1017441
11:30+24˚ne674595 0.0 1015940
14:30+25˚ne564882 0.0 10121240
17:30+22˚ne586691 0.0 1013485
20:30+19˚ne5978100 0.0 1016485
2 december, wed
wed223:30+18˚ne41081100 0.0 1015414
02:30+18˚nne5117094 0.0 1013372
05:30+18˚ne5117986 0.0 1014384
08:30+20˚ne6107665 0.0 1015559
11:30+24˚ne797061 0.0 1014961
14:30+24˚ne797098 0.0 10101021
17:30+22˚ne6107999 0.1 1011833
20:30+21˚ne61183100 0.0 1013686
3 december, thu
thu323:30+21˚ene51083100 0.0 1013727
02:30+21˚e61084100 0.0 1011752
05:30+20˚ene4987100 0.1 1012551
08:30+22˚ene587985 0.0 1014730
11:30+26˚ene566059 0.1 10131237
14:30+27˚ene565950 0.6 10091319
17:30+24˚ene577231 1.2 1011599
20:30+22˚ene488528 0.2 1013429